Regional Weather Roundup
Issued by NWS

Home | Current Version | Previous Version | Graphics & Text | Print | Product List | Glossary On
Versions: 1 2 3 4 5 6 7 8 9 10 11 12 13 14 15 16 17 18 19 20 21 22 23 24 25 26 27 28 29 30 31 32 33 34 35 36 37 38 39 40 41 42 43 44 45 46 47 48 49 50
000
ASUS43 KDMX 211506
RWRIA

WEATHER ROUNDUP FOR IOWA
NATIONAL WEATHER SERVICE DES MOINES IA
1000 AM CDT SAT OCT 21 2017

NOTE: "FAIR" INDICATES FEW OR NO CLOUDS BELOW 12,000 FEET WITH NO
SIGNIFICANT WEATHER AND/OR OBSTRUCTIONS TO VISIBILITY.

* - THESE STATIONS ARE NOT NWS STATIONS...THUS NOT UNDER NWS
QUALITY CONTROL.  THEY ALSO DO NOT REPORT WEATHER SUCH
AS PRECIPITATION OR FOG.

IAZ001>003-012>014-020>022-031>034-043>046-211600-
   NORTHWEST IOWA

CITY           SKY/WX    TMP DP  RH WIND       PRES   REMARKS
CHEROKEE *     CLOUDY    66  63  88 S20G26    29.62F
DENISON *      CLOUDY    64  61  88 S15G25    29.68S
LE MARS *      CLOUDY    68  63  83 S20G29    29.58S
ORANGE CITY *  CLOUDY    68  64  88 S15G21    29.59S
SHELDON *      CLOUDY    66  63  88 S15G24    29.59S
SIOUX CITY     CLOUDY    68  63  84 S12       29.59R
SPENCER        CLOUDY    64  61  90 S21G29    29.64F
STORM LAKE *   CLOUDY    64  61  88 S18       29.66S
$$

IAZ055>058-069>071-079>083-090>094-211600-
   SOUTHWEST IOWA

CITY           SKY/WX    TMP DP  RH WIND       PRES   REMARKS
ATLANTIC *     CLOUDY    66  61  82 S17G26    29.71R
AUDUBON *      CLOUDY    64  61  88 S9G18     29.73R
CLARINDA *     CLOUDY    68  61  77 S22G31    29.75F
COUNCIL BLFS * CLOUDY    68  66  94 S20G30    29.68S
CRESTON *      CLOUDY    66  59  77 S22G29    29.77F
HARLAN  *      CLOUDY    66  63  88 S16       29.72S
LAMONI         LGT RAIN  65  57  75 S17G30    29.82R
RED OAK *      CLOUDY    68  61  77 S24G32    29.71R
SHENANDOAH *   CLOUDY    70  61  73 S17G29    29.70S
$$

IAZ047>049-059>061-072>074-084-211600-
   CENTRAL IOWA

CITY           SKY/WX    TMP DP  RH WIND       PRES   REMARKS
AMES           CLOUDY    65  60  84 S16G24    29.77S
ANKENY *       CLOUDY    66  59  77 S18       29.79S
BOONE *        CLOUDY    64  59  82 S18G26    29.74F
CHARITON *     PTSUNNY   66  57  72 S20G32    29.82F
DES MOINES     CLOUDY    66  58  75 S17       29.78F
GRINNELL*      PTSUNNY   64  55  74 S17       29.85F
KNOXVILLE *    MOSUNNY   68  55  64 S17G24    29.81F
MARSHALLTOWN   CLOUDY    65  58  78 S17       29.80F
NEWTON *       CLOUDY    66  57  72 S23G30    29.82S
PELLA *        MOSUNNY   68  56  64 S15G28    29.85S
PERRY *        CLOUDY    66  60  82 S17G26    29.73F
$$

IAZ004>006-015-016-023>025-035-036-211600-
   NORTH CENTRAL IOWA

CITY           SKY/WX    TMP DP  RH WIND       PRES   REMARKS
ALGONA *       CLOUDY    61  61 100 S20G28    29.71R FOG
CLARION *      CLOUDY    63  63 100 S18       29.74S
ESTHERVILLE    CLOUDY    61  61 100 S21G30    29.66F
MASON CITY     CLOUDY    62  59  90 S22       29.77F
FOREST CITY *  CLOUDY    61  61 100 S22G30    29.73S
WEBSTER CITY * CLOUDY    64  59  82 S14G23    29.72F
IOWA FALLS *   CLOUDY    64  58  80 S17G23    29.79F
$$

IAZ007>011-017>019-026>030-037>042-050>054-066-211600-
   NORTHEAST IOWA

CITY           SKY/WX    TMP DP  RH WIND       PRES   REMARKS
CEDAR RAPIDS   PTSUNNY   67  55  65 S17G28    29.89S
CHARLES CITY * PTSUNNY   63  59  88 S17G26    29.82S
CLINTON *      SUNNY     67  54  63 S16       29.98R
DECORAH *      CLOUDY    61  55  82 S14       29.85S
DUBUQUE        MOSUNNY   66  53  63 S21G29    29.93S
MONTICELLO *   SUNNY     68  54  60 MISG      29.91S
OELWEIN *      CLOUDY    63  57  82 S17G25    29.87S
WATERLOO       CLOUDY    62  55  77 S16       29.82F
$$

IAZ064-065-067-068-078-211600-
   EAST CENTRAL IOWA

CITY           SKY/WX    TMP DP  RH WIND       PRES   REMARKS
DAVENPORT      SUNNY     68  53  58 S18G29    29.98R
IOWA CITY      SUNNY     69  55  60 S16G24    29.93S
MUSCATINE *    SUNNY     70  54  56 S21G32    29.93F
QUAD CITIES    SUNNY     69  54  58 S14G20    29.96R
$$

IAZ062-063-075>077-085>089-095>099-211600-
   SOUTHEAST IOWA

CITY           SKY/WX    TMP DP  RH WIND       PRES   REMARKS
BURLINGTON     SUNNY     67  56  67 S14G25    29.95S
FAIRFIELD *    PTSUNNY   68  54  60 S20       29.91R
FORT MADISON * MOSUNNY   68  57  68 S16       29.96S
KEOKUK *       MOSUNNY   68  57  68 S17G25    29.94S
OSKALOOSA *      N/A     65  56  72 S20       29.87F
OTTUMWA        PTSUNNY   67  56  67 S16G25    29.87F
WASHINGTON *   SUNNY     70  55  60 S21G31    29.92S
$$

ABBREVIATIONS USED IN REMARKS
   TC - TEMPERATURES IN CELSIUS
  WCI - WIND CHILL INDEX
   HX - HEAT INDEX
  VSB - VISIBILITY
$$





USA.gov is the U.S. government's official web portal to all federal, state and local government web resources and services.